Tracking 19199 objects as of 24-Jun-2018
HD Live streaming from Space Station
objects crossing your sky now

FENGYUN 1C DEB

Track FENGYUN 1C DEB now!
10-day predictions


NORAD ID: 36273
Int'l Code: 1999-025DXA
Perigee: 781.5 km
Apogee: 927.0 km
Inclination: 99.6 °
Period: 101.9 minutes
Semi major axis: 7225 km
RCS: 0.0115 m2 (small)
Launch date: May 10, 1999
Source: People's Republic of China (PRC)
Launch site: Taiyaun Space Center, China (TSC)

Note: This is SATELLITE DEBRIS
aabbcc
Your satellite tracking list
Your tracking list is empty




NASA's NSSDC Master Catalog

Two Line Element Set (TLE):
1 36273U 99025DXA 18168.73775868  .00000050  00000-0  50782-4 0  9992
2 36273  99.6377 153.7506 0100720  20.3331 340.1806 14.13586291535536
Source of the keplerian elements: AFSPC